Regional Weather Roundup
Issued by NWS

Home | Current Version | Previous Version | Graphics & Text | Print | Product List | Glossary On
Versions: 1 2 3 4 5 6 7 8 9 10 11 12 13 14 15 16 17 18 19 20 21 22 23 24 25 26 27 28
000
ASUS45 KBOI 190810
RWRID

IDAHO REGIONAL WEATHER ROUNDUP
NATIONAL WEATHER SERVICE BOISE ID
100 AM MST SUN FEB 19 2017

NOTE: "FAIR" INDICATES FEW OR NO CLOUDS BELOW 12000 FEET
WITH NO SIGNIFICANT WEATHER AND/OR OBSTRUCTIONS TO VISIBILITY

IDZ012-014-190900-
SOUTHWEST IDAHO


CITY           SKY/WX    TMP DP  RH WIND       PRES   REMARKS
BOISE          CLOUDY    43  40  89 E6        29.50F
CALDWELL       CLOUDY    40  39  97 NE3       29.51S
MOUNTAIN HOME  CLOUDY    39  39 100 E6        29.51S WCI  34
$$

IDZ016-017-190900-
SOUTHCENTRAL IDAHO


CITY           SKY/WX    TMP DP  RH WIND       PRES   REMARKS
BURLEY         RAIN      41  38  89 NW6       29.54S FOG
JEROME         LGT RAIN  40  38  93 SE6       29.55R
TWIN FALLS     LGT RAIN  41  37  86 S10       29.54R
$$

IDZ019>023-190900-
SOUTHEAST IDAHO


CITY           SKY/WX    TMP DP  RH WIND       PRES   REMARKS
IDAHO FALLS    LGT RAIN  40  38  93 S12       29.53F WCI  33
POCATELLO      CLOUDY    45  36  70 S31G41    29.51F
REXBURG        LGT RAIN  39  37  92 S12       29.54S WCI  32
$$

IDZ006-010-011-018-031-032-190900-
CENTRAL IDAHO MOUNTAINS


CITY           SKY/WX    TMP DP  RH WIND       PRES   REMARKS
MCCALL         CLOUDY    32  30  92 S5        29.45S WCI  27
HAILEY         CLOUDY    32  32 100 SE5       29.54F FOG     WCI  27
STANLEY          N/A     33  32  96 SE5       29.47S WCI  29
SALMON         CLOUDY    37  34  87 S7        29.43S WCI  32
CHALLIS        CLOUDY    37  34  89 CALM      29.45S
$$

IDZ002-004-006-007-026-190900-
NORTHERN IDAHO


CITY           SKY/WX    TMP DP  RH WIND       PRES   REMARKS
LEWISTON       CLOUDY    39  37  92 NE5       29.49R
LOWELL           N/A     35  33  92 N3        29.54R
COEUR D`ALENE  LGT RAIN  33  32  96 CALM      29.47R
MULLAN PASS    LGT SNOW  27  27 100 VRB6      29.38R FOG     WCI  20
$$




USA.gov is the U.S. government's official web portal to all federal, state and local government web resources and services.